Malmstrom AFB, MT

3:47 PM MST on February 22, 2018 (GMT -0700)
Malmstrom AFB

Weather History for KGFA - December, 2013

Change the Weather History Date:

Saturday, December 7, 2013

  Actual Average (KGTF) Record (KGTF)
Temperature  
Mean Temperature -24 °F -  
Max Temperature -16 °F 33 °F 60 °F (1900)
Min Temperature -33 °F 15 °F -33 °F (2013)
Degree Days  
Heating Degree Days 90    
Moisture  
Dew Point -28 °F    
Average Humidity 73    
Maximum Humidity 78    
Minimum Humidity 67    
Precipitation  
Precipitation 0.00 in - - ()
Snow  
Snow 0.00 in - - ()
Snow Depth 4.00 in    
Sea Level Pressure  
Sea Level Pressure 30.70 in    
Wind  
Wind Speed 3 mph (SSW)    
Max Wind Speed 7 mph    
Max Gust Speed -    
Visibility 9 miles    
Events      
Averages and records for this station are not official NWS values.
T = Trace of Precipitation, MM = Missing Value Source: NWS Daily Summary

Daily Weather History Graph

Daily Weather History Graph

Search for Another Location

Airport or City:

Trip Planner

Search our weather history database for the weather conditions in past years. The results will help you decide how hot, cold, wet, or windy it might be!

Date:

Astronomy

Dec. 07, 2013 Rise Set
Actual Time 7:58 AM MST 4:33 PM MST
Civil Twilight 7:23 AM MST 5:09 PM MST
Nautical Twilight 6:44 AM MST 5:48 PM MST
Astronomical Twilight 6:07 AM MST 6:25 PM MST
Moon 11:31 AM MST (12/7) 10:36 PM MST (12/7)
Length of Visible Light 9h 46m
Length of Day
8h 34m
Waxing Crescent, 30% of the Moon is Illuminated
Dec 7
Waxing Crescent
Dec 9
First Quarter
Dec 17
Full
Dec 25
Last Quarter
Jan 1
New

Hourly Weather History & Observations

Time (MST) Temp. Windchill Dew Point Humidity Pressure Visibility Wind Dir Wind Speed Gust Speed Precip Events Conditions
12:56 AM -31.0 °F -46.1 °F - N/A% 30.88 in - South 4.6 mph - N/A   Clear
1:56 AM -29.0 °F -43.8 °F -34.1 °F 77% 30.85 in - SSW 4.6 mph - N/A   Clear
2:56 AM -27.0 °F - -34.1 °F 69% 30.83 in - Calm Calm - N/A   Clear
3:56 AM -29.9 °F - - N/A% 30.81 in - Calm Calm - N/A   Clear
4:56 AM -32.1 °F -44.5 °F - N/A% 30.81 in 7.0 mi South 3.5 mph - N/A   Clear
5:56 AM -29.9 °F - - N/A% 30.88 in 7.0 mi Calm Calm - N/A   Clear
6:56 AM -33.0 °F -45.5 °F - N/A% 30.90 in 7.0 mi SW 3.5 mph - N/A   Clear
7:56 AM -27.9 °F - -34.1 °F 73% 30.86 in 10.0 mi Calm Calm - N/A   Clear
8:56 AM -31.0 °F -50.3 °F - N/A% 30.89 in - SSW 6.9 mph - N/A   Clear
9:56 AM -25.1 °F -43.1 °F -31.0 °F 74% 30.79 in 10.0 mi SSW 6.9 mph - N/A   Clear
10:56 AM -20.0 °F -30.7 °F -26.0 °F 74% 30.75 in 10.0 mi West 3.5 mph - N/A   Clear
11:56 AM -20.9 °F -31.7 °F -27.9 °F 70% 30.68 in 10.0 mi SE 3.5 mph - N/A   Clear
12:56 PM -16.1 °F - -24.0 °F 67% 30.68 in - Calm Calm - N/A   Clear
1:56 PM -18.0 °F - -24.0 °F 74% 30.64 in - Calm Calm - N/A   Clear
2:56 PM -18.9 °F -32.0 °F -26.0 °F 70% 30.59 in - ESE 4.6 mph - N/A   Clear
3:56 PM -18.9 °F - -25.1 °F 74% 30.61 in - Calm Calm - N/A   Clear
4:56 PM -17.0 °F - -24.0 °F 70% 30.60 in 10.0 mi Calm Calm - N/A   Clear
5:56 PM -18.9 °F - -26.0 °F 70% 30.59 in 10.0 mi Calm Calm - N/A   Clear
6:56 PM -22.0 °F -33.0 °F -27.0 °F 77% 30.66 in 10.0 mi SSW 3.5 mph - N/A   Clear
7:56 PM -25.1 °F -39.1 °F -29.9 °F 78% 30.63 in 10.0 mi South 4.6 mph - N/A   Clear
8:56 PM -22.0 °F -37.7 °F -27.9 °F 74% 30.60 in 10.0 mi SSW 5.8 mph - N/A   Clear
9:56 PM -18.9 °F -34.0 °F -24.0 °F 78% 30.46 in 10.0 mi SW 5.8 mph - N/A   Clear
10:56 PM -26.0 °F -40.2 °F -32.1 °F 73% 30.46 in 10.0 mi WSW 4.6 mph - N/A   Clear
11:56 PM -18.9 °F -34.0 °F -25.1 °F 74% 30.41 in 10.0 mi SW 5.8 mph - N/A   Clear